Location: Allaines
(49.9632°N, 2.9458°E)
Time: 12:25:51
(UTC+00:00)

Meteor 2-3 Rocket - Visible Passes

Search period start: 06 August 2020 00:00
Search period end: 16 August 2020 00:00
Orbit: 843 x 884 km, 81.2° (Epoch: 05 August)

Date Brightness Start Highest point End Pass type
(mag) Time Alt. Az. Time Alt. Az. Time Alt. Az.
06 Aug 5.6 20:42:29 10° SW 20:47:41 33° WNW 20:52:55 10° N visible
07 Aug 5.7 20:34:21 10° SW 20:39:34 33° WNW 20:44:49 10° N visible
08 Aug 7.4 03:47:13 10° NE 03:47:17 10° NE 03:47:21 10° NE visible
08 Aug 5.7 20:26:15 10° SW 20:31:27 34° WNW 20:36:42 10° N visible
09 Aug 5.7 20:18:07 10° SW 20:23:20 34° WNW 20:28:36 10° N visible
10 Aug 5.7 20:10:00 10° SW 20:15:13 34° WNW 20:20:29 10° N visible
11 Aug 5.7 20:01:52 10° SW 20:07:07 34° WNW 20:12:23 10° N visible
12 Aug 5.8 19:53:45 10° SW 19:59:00 34° WNW 20:04:16 10° N visible
13 Aug 5.8 19:45:38 10° SW 19:50:53 34° WNW 19:56:09 10° N visible
14 Aug 5.8 19:37:31 10° SW 19:42:46 35° WNW 19:48:03 10° N visible
